Theta_e
350 358 365 363 362 363 366 366 365 363 364 365 365 363 364 363 365 365 363 364 363 363 361 362 362 360 359 359 359 358 358 359 355 356 358 360 361 361 362 362 359 359 365
353 358 365 365 363 363 365 365 365 363 364 364 365 364 363 362 361 363 362 362 362 362 362 361 361 359 359 358 358 357 358 361 357 358 351 352 358 361 361 355 350 348 363
353 358 360 364 363 363 365 365 364 364 365 366 364 364 362 360 358 360 361 361 361 361 361 361 361 360 359 358 358 358 358 359 359 352 346 337 341 355 359 351 348 348 360
354 356 358 364 365 363 363 363 363 364 363 363 363 364 362 359 358 360 360 360 360 360 360 359 359 359 358 359 358 358 358 358 355 348 343 339 339 351 359 356 349 353 360
351 355 359 367 367 365 365 364 363 363 363 362 362 361 361 357 360 359 359 359 360 360 360 360 360 359 359 358 359 359 358 358 353 348 343 332 337 350 358 359 359 359 357
353 357 364 365 363 363 364 364 363 363 362 362 361 360 361 357 360 360 360 360 359 360 361 361 360 359 360 359 359 358 355 357 354 345 337 333 341 353 360 359 358 359 357
352 358 360 366 365 364 363 362 363 362 362 362 361 360 359 356 359 362 361 362 360 359 358 358 358 359 358 358 357 357 355 357 343 345 338 339 342 358 360 358 356 355 355
352 357 359 365 366 363 363 362 362 362 361 362 360 360 358 358 360 361 359 359 359 358 356 356 357 358 358 359 357 357 355 355 349 342 343 346 355 361 359 359 359 358 358
353 354 356 356 359 362 363 361 361 361 359 359 359 358 357 357 357 358 359 360 359 358 358 357 357 358 360 358 358 357 358 353 346 341 342 342 359 361 359 359 359 358 359
349 351 352 354 354 353 353 362 360 359 359 359 358 357 354 352 356 356 361 361 358 358 357 358 357 358 360 359 359 357 359 355 343 341 340 341 360 360 359 357 356 357 358
346 348 352 352 353 352 354 357 360 359 358 359 356 357 351 348 347 354 358 360 358 359 358 357 358 359 359 358 359 357 358 347 346 342 342 353 359 359 359 359 358 358 358
343 344 347 349 351 353 357 353 352 353 350 350 348 349 350 350 347 350 357 358 359 358 357 354 355 359 358 352 353 356 349 347 349 345 347 360 360 358 357 357 357 357 357
344 346 347 352 350 351 352 353 353 352 350 350 348 346 350 351 352 351 352 352 350 357 353 353 353 351 351 352 354 351 352 349 348 349 353 362 361 359 358 357 357 357 357
343 344 349 350 351 351 352 352 351 351 349 348 348 348 347 350 349 350 350 349 350 351 347 349 350 351 350 354 349 344 351 348 346 347 353 362 362 360 358 358 357 356 356
342 344 348 349 349 348 350 350 350 349 348 348 347 348 344 345 348 349 350 349 343 345 349 350 350 340 341 345 345 349 347 346 350 349 350 362 362 362 359 356 355 356 356
343 344 348 348 349 349 348 348 348 347 346 346 348 345 344 350 348 347 349 349 347 347 347 350 347 343 338 340 345 348 346 347 350 349 351 356 362 361 360 357 357 357 357
342 345 345 347 349 350 348 347 348 346 346 345 345 344 349 349 350 346 347 348 349 349 351 349 344 340 336 343 347 349 346 346 346 348 350 351 357 363 362 361 361 361 360
343 342 345 349 347 348 346 347 347 347 345 343 345 346 347 353 350 349 349 349 348 351 351 350 342 340 340 344 345 347 347 346 346 346 349 350 351 352 360 362 361 361 360
343 343 343 344 344 346 346 345 345 347 347 345 347 348 349 350 345 344 344 344 342 348 345 346 349 345 346 343 340 343 346 344 345 348 347 347 347 349 351 361 361 361 359
343 344 343 343 343 342 341 340 346 346 347 347 346 349 348 349 342 345 345 343 342 347 350 347 347 344 340 339 349 349 347 346 348 345 346 346 345 347 348 350 353 354 361
343 342 344 344 343 340 340 337 340 340 342 344 346 347 350 348 344 343 342 342 342 341 343 345 350 342 340 342 341 336 335 345 346 346 344 344 344 345 346 348 350 349 354
341 342 345 344 343 340 339 339 342 342 342 344 346 346 348 346 348 341 340 340 341 341 344 346 350 346 343 337 332 328 326 332 339 344 346 344 342 345 345 346 347 346 350
340 344 344 344 344 339 338 340 343 344 342 339 342 345 345 352 344 342 341 340 343 345 342 337 350 347 336 333 332 328 327 324 332 335 338 344 345 344 344 347 348 349 349
340 345 345 345 345 344 343 338 341 339 333 337 340 344 348 349 350 342 341 341 340 341 337 346 354 350 340 338 336 336 332 330 326 325 332 339 343 348 346 346 348 351 351
342 344 346 345 346 347 345 343 343 332 332 334 338 340 346 349 353 351 341 342 347 347 348 352 352 350 344 335 337 333 333 330 330 328 323 328 337 338 340 346 348 351 353
342 344 347 345 344 346 347 345 343 334 336 338 341 339 346 350 345 346 351 352 352 351 352 351 354 349 351 348 339 334 333 334 333 332 334 333 331 334 341 344 347 349 353
Wind_Speed
9 10 14 14 12 12 14 15 13 11 13 14 14 15 15 13 13 15 14 12 12 11 10 10 11 10 8 8 6 5 4 6 8 9 8 7 9 9 8 10 8 9 14
14 11 14 14 13 12 14 14 13 11 13 14 13 14 14 13 12 13 13 12 10 10 10 10 10 9 6 5 4 4 4 6 9 9 8 7 7 8 9 13 5 3 12
14 11 13 15 14 14 14 13 12 13 12 13 14 13 13 13 10 11 12 11 11 10 9 9 9 8 7 6 5 6 5 5 14 9 7 5 4 4 15 13 10 4 10
15 11 11 15 16 15 15 14 12 13 13 12 12 11 11 12 10 11 11 9 8 8 9 8 7 6 7 8 7 7 5 6 9 5 4 4 5 2 17 14 13 9 13
13 11 12 14 15 15 15 13 14 12 11 11 11 12 12 10 11 10 10 11 9 9 9 9 8 7 8 7 6 6 5 9 8 7 2 5 2 3 13 19 14 14 14
14 12 13 15 14 14 13 13 12 12 11 11 11 11 11 10 11 11 10 11 11 9 9 9 9 9 8 8 6 6 3 11 11 4 8 3 1 2 14 14 14 15 11
14 12 12 15 14 13 13 12 11 10 11 11 11 11 11 9 10 13 10 10 10 8 8 8 8 8 7 7 6 5 1 12 10 5 6 6 5 7 12 14 15 16 14
15 12 11 14 14 14 12 11 11 10 9 10 10 11 11 9 11 11 9 9 9 9 8 8 8 7 6 6 5 5 3 19 18 11 6 7 9 12 13 14 14 13 13
13 14 10 8 11 13 12 11 9 10 9 9 10 10 10 9 9 6 6 7 7 7 8 8 8 7 7 7 7 5 12 20 14 7 7 3 12 15 14 14 13 12 12
7 11 10 8 7 7 6 13 11 9 9 10 9 10 8 7 7 4 2 4 5 6 7 7 9 8 9 9 8 3 12 14 9 7 3 4 11 15 14 14 14 13 13
4 7 8 8 9 8 6 7 11 11 10 11 10 9 5 1 2 1 3 5 4 5 6 6 7 10 9 10 10 4 11 2 5 4 3 7 13 15 15 14 14 13 13
7 7 7 5 7 9 7 5 5 5 3 3 3 3 2 2 3 5 3 4 6 4 5 4 5 6 6 2 3 4 3 4 2 2 3 12 13 15 14 14 13 11 10
7 6 8 6 7 7 6 4 3 2 2 3 5 3 3 2 2 3 3 2 3 3 1 4 2 2 2 5 5 3 3 5 2 3 6 11 12 14 13 13 12 11 9
8 7 8 7 7 7 5 4 4 3 3 2 4 4 0 2 4 3 2 2 3 3 4 4 2 3 4 9 7 5 5 4 2 2 5 11 13 14 13 12 11 10 10
9 7 6 8 6 5 6 4 4 3 3 3 4 3 0 2 2 5 5 5 3 3 3 3 5 4 2 3 7 1 5 6 6 5 2 14 13 13 12 12 11 10 9
11 8 7 7 7 6 5 5 3 3 4 3 3 3 3 1 3 6 4 4 5 6 4 2 5 5 6 5 5 4 8 8 7 6 4 5 13 12 11 11 11 10 9
10 12 7 7 7 6 6 6 5 5 4 4 4 5 4 1 4 4 2 3 7 8 6 4 1 5 3 5 7 7 4 8 8 8 5 3 5 11 11 11 10 10 9
12 10 9 9 8 6 6 5 3 3 3 4 3 4 5 3 4 4 1 4 7 7 2 3 3 2 4 0 2 5 3 7 10 8 7 4 4 4 8 11 10 9 10
14 11 11 10 8 7 6 4 4 3 4 4 4 4 6 5 6 7 5 4 5 2 1 6 3 5 4 1 5 4 4 4 9 9 9 8 7 6 4 9 11 10 11
14 10 11 8 8 7 4 3 2 3 4 4 4 4 7 4 9 7 4 1 3 6 1 2 5 1 4 5 4 2 4 3 2 6 10 8 7 8 6 6 4 5 10
14 11 13 11 8 7 4 3 2 3 2 2 4 6 6 6 7 5 3 4 3 2 4 6 4 5 2 2 3 3 4 2 10 4 4 6 9 8 7 6 5 4 4
15 13 12 11 10 7 4 3 2 3 2 3 3 4 6 7 12 5 3 4 7 6 8 8 2 2 2 6 2 2 4 3 2 1 2 3 7 8 7 8 7 6 5
16 16 13 14 11 8 6 3 1 1 3 3 3 2 4 7 14 10 5 6 2 1 5 6 3 6 5 6 6 3 2 2 2 3 4 5 5 2 4 8 10 7 6
16 16 15 14 10 9 8 6 5 4 3 4 3 1 3 5 10 12 10 6 7 3 5 7 2 4 8 8 3 3 0 4 3 4 3 0 4 3 1 4 6 8 8
17 15 15 13 12 8 7 8 5 4 2 2 2 4 5 4 5 12 12 10 8 5 7 3 3 5 6 4 3 3 1 2 4 2 3 2 3 4 4 2 5 5 8
17 15 15 14 13 8 9 8 8 9 5 1 1 5 4 4 5 5 6 6 5 4 1 1 2 5 3 4 7 4 3 2 2 2 1 3 2 5 1 3 4 4 6
Wind_Direction
134 138 149 147 144 137 124 121 113 118 119 118 117 112 111 116 119 117 114 122 130 139 144 144 150 141 121 104 111 112 116 116 138 121 124 128 126 131 130 123 87 119 119
136 140 144 138 136 127 121 119 120 126 118 118 119 121 119 126 121 127 129 135 145 147 152 154 155 163 158 111 116 153 171 151 140 111 95 69 64 139 127 76 57 39 122
130 137 137 136 134 131 128 128 128 128 120 123 126 132 129 130 126 133 130 144 148 154 164 167 173 179 167 144 168 191 189 145 100 136 140 115 79 60 120 153 191 248 144
133 138 134 135 133 135 134 136 138 132 129 128 130 139 142 137 140 143 144 145 146 142 153 163 161 156 148 159 184 202 188 138 127 183 187 44 92 87 148 178 180 192 142
132 129 137 136 132 134 135 135 133 129 131 135 150 153 157 141 140 140 143 138 142 139 148 151 151 151 149 166 188 208 198 124 142 242 156 86 56 167 138 175 185 168 151
125 131 137 138 135 134 132 131 137 135 142 153 162 163 159 142 138 134 138 137 139 148 144 150 154 160 147 149 187 215 195 124 179 345 352 103 146 148 143 147 160 168 160
131 137 144 147 146 148 142 141 141 150 156 171 172 168 158 142 139 132 139 137 132 130 148 160 164 163 154 169 201 232 280 77 106 296 302 297 233 179 130 143 149 148 144
135 137 143 145 143 142 146 145 148 153 161 170 177 172 156 147 142 136 146 149 144 159 168 176 173 168 175 181 206 230 89 111 152 181 204 236 194 144 140 140 147 145 149
142 140 141 146 146 146 145 149 156 158 162 179 177 170 160 148 139 140 170 149 147 164 176 185 181 178 184 202 220 224 109 130 146 176 185 201 157 145 148 140 137 139 142
137 141 150 150 148 155 161 161 163 168 172 182 179 165 165 169 143 142 197 139 161 171 182 188 186 190 203 226 233 209 143 127 148 172 218 184 150 146 148 143 146 147 147
149 137 159 160 166 161 161 171 166 173 183 186 178 168 155 63 302 290 252 242 197 201 202 195 190 203 212 235 244 205 136 183 176 149 187 188 155 152 150 145 151 150 147
139 162 130 165 176 155 155 159 160 176 177 165 168 144 120 95 322 313 326 238 235 220 219 218 218 231 233 276 278 265 116 221 181 166 197 175 159 151 152 151 149 143 139
179 159 155 147 155 151 150 157 177 159 162 185 139 94 27 42 347 336 319 334 339 273 273 240 218 243 24 13 293 84 100 178 203 209 168 178 160 154 157 153 148 140 147
152 155 151 148 151 159 152 165 173 163 141 139 87 90 21 50 27 16 334 282 326 315 296 299 230 157 142 165 257 102 187 176 164 160 172 183 164 162 159 155 149 149 155
156 154 146 140 151 161 166 164 168 158 142 132 113 112 354 26 34 29 356 328 306 297 268 290 53 108 59 331 307 205 247 144 179 151 165 181 163 158 157 156 156 161 164
165 151 137 136 148 165 149 148 152 140 147 134 107 178 188 316 71 112 206 257 317 276 261 103 164 203 154 185 244 235 227 146 155 145 175 172 160 159 159 161 168 168 171
138 152 150 131 134 132 145 156 159 176 156 151 174 192 152 280 48 86 254 248 288 284 252 145 43 27 317 57 327 280 138 157 158 159 164 188 165 167 170 172 176 178 176
142 147 154 145 136 137 145 152 162 179 153 161 191 146 166 202 94 115 9 334 314 272 349 95 86 93 327 26 293 315 276 158 155 158 155 172 175 182 187 182 180 183 175
156 147 133 133 141 128 136 154 178 204 164 171 150 158 165 153 126 81 2 289 331 291 305 109 223 173 212 210 225 294 336 164 154 159 165 171 182 179 187 199 188 191 184
137 134 135 130 126 127 136 135 186 156 151 143 149 161 140 143 83 95 212 324 30 283 336 145 227 178 202 161 40 322 336 9 34 173 175 175 180 178 184 196 195 212 209
127 138 134 131 137 137 149 141 140 165 175 176 186 193 146 144 134 135 270 42 33 319 340 325 257 155 17 119 108 352 22 152 214 244 169 168 183 182 177 188 196 197 210
142 149 135 137 149 153 163 168 148 152 193 173 208 205 190 146 141 180 158 31 28 346 345 325 329 95 50 38 56 67 26 339 328 254 34 232 177 176 186 192 194 201 178
152 152 148 150 163 168 178 150 141 70 37 42 2 231 193 164 155 146 179 120 212 260 288 290 324 73 58 2 46 117 105 220 313 348 24 44 2 142 215 185 193 186 170
160 149 152 154 163 176 182 164 158 144 163 203 178 302 233 179 140 166 170 175 192 216 248 257 81 94 117 111 349 6 157 149 129 340 8 299 304 185 210 240 172 179 173
159 155 157 161 160 168 167 170 155 169 173 115 137 234 237 205 186 159 189 192 185 201 227 239 16 82 139 155 184 223 273 154 113 128 272 316 317 303 262 233 213 171 169
162 157 157 167 167 171 172 181 166 175 183 187 360 193 225 195 198 199 166 170 166 145 34 300 72 51 44 118 162 213 168 117 192 142 14 351 290 288 103 331 271 214 180